Lid_Strength_Index
12 15 17 15 13 13 12 13 14 12 9 11 12 11 10 8 9 10 11 13 13 13 11 10 5 3 2 2 2 2 2 1 1 1 2 2 3 3 3 2 2 2 2 2
15 17 14 12 12 13 13 14 14 12 10 11 12 13 10 9 9 10 10 11 13 13 11 11 9 4 3 3 2 2 2 2 1 1 1 1 2 2 3 3 2 2 2 2
17 16 13 13 13 15 14 14 14 14 12 11 13 14 12 10 8 8 9 9 11 12 12 12 10 7 3 3 3 2 2 2 1 1 1 2 3 3 4 4 3 2 2 2
16 14 14 15 15 14 18 13 13 13 14 18 13 20 15 12 11 9 9 10 11 12 12 11 12 8 4 3 2 2 2 2 1 1 2 3 3 4 4 3 3 3 3 3
17 16 16 18 15 13 16 12 14 14 14 15 15 17 16 13 13 11 10 10 10 12 11 11 12 7 3 3 2 2 2 2 1 2 2 3 3 3 3 4 4 3 4 4
16 13 15 14 12 12 12 14 13 13 15 20 16 17 17 16 13 12 10 10 10 11 11 11 11 9 3 3 3 2 2 2 1 2 1 2 3 4 4 4 4 4 5 6
17 16 13 12 15 12 13 17 25 26 25 23 15 17 16 12 10 10 9 9 10 11 11 11 11 10 6 4 3 3 3 3 2 2 2 3 2 3 4 4 4 5 6 7
24 23 17 14 15 16 15 15 20 24 25 21 15 19 15 12 12 11 10 8 9 12 11 11 11 10 7 4 3 3 3 3 2 2 2 2 2 3 3 3 3 4 4 4
22 22 14 13 12 13 17 18 16 20 19 20 17 14 11 14 15 14 12 8 11 12 12 11 11 9 7 4 3 3 3 3 3 2 2 2 2 3 4 4 4 4 4 5
18 22 15 13 13 12 16 15 22 20 26 26 18 18 20 19 19 17 10 9 11 12 12 12 10 8 4 4 3 3 3 3 2 3 4 6 7 7 7 10 11 13 12 12
15 18 18 15 20 20 19 22 20 20 21 23 22 20 17 19 18 13 9 8 11 11 10 9 6 6 7 7 8 8 8 9 9 9 10 11 12 12 12 12 12 13 13 13
15 18 22 20 16 16 18 21 21 25 23 22 20 20 17 18 17 10 9 8 7 8 8 9 9 9 10 10 11 11 11 11 11 12 12 12 12 13 13 13 13 13 13 13
15 19 24 22 18 17 20 21 21 19 20 24 26 24 18 19 19 13 9 9 8 9 10 11 11 11 11 12 12 12 12 13 13 13 13 14 14 14 14 14 14 14 14 15
14 18 21 25 23 21 23 22 21 23 29 26 25 25 22 22 22 19 13 11 11 12 12 12 12 12 12 13 13 13 13 13 13 13 14 14 14 14 15 15 15 15 15 15
17 23 20 22 20 20 21 22 22 25 25 27 26 25 24 23 23 21 16 15 15 15 15 14 14 14 14 14 14 14 14 14 14 14 15 15 15 15 15 15 15 15 16 16
17 25 24 24 20 20 21 21 22 23 25 25 23 24 22 21 21 22 21 20 19 17 17 16 16 16 16 16 16 16 16 16 15 15 16 15 15 16 16 15 16 17 17 17
19 20 26 29 22 19 24 22 22 23 24 25 29 25 22 24 25 24 23 22 22 20 19 19 19 18 17 17 17 17 17 16 16 16 16 17 17 17 16 16 17 18 19 19
19 19 24 28 26 26 19 18 20 22 23 24 24 25 23 23 24 24 23 23 23 22 21 20 19 19 18 17 18 18 17 18 19 19 19 18 18 18 18 19 20 20 20 20
18 21 26 27 29 19 19 19 21 23 22 22 24 24 23 19 20 25 24 24 24 24 23 22 20 20 20 19 18 19 20 20 20 21 21 20 20 20 20 20 20 21 21 21
17 20 25 30 31 28 21 19 17 19 22 21 22 24 24 21 26 28 25 24 24 24 24 24 22 21 22 22 20 21 21 21 21 21 21 21 21 21 22 22 22 21 21 21
23 24 28 29 29 24 22 20 18 23 22 21 22 23 24 27 28 28 25 25 24 24 24 24 24 24 23 22 22 23 23 23 22 21 21 21 21 22 22 22 22 22 22 21
22 24 26 29 27 22 20 19 22 23 24 24 24 24 25 26 27 26 25 25 25 25 24 24 25 25 24 22 22 24 24 23 23 23 22 22 21 20 20 21 20 21 21 22
23 21 24 23 24 23 23 23 22 24 26 25 22 21 21 22 23 23 24 24 24 25 25 24 25 25 25 24 23 24 23 22 22 22 23 22 21 20 20 21 21 22 22 23
19 17 20 20 20 23 23 21 21 20 19 19 19 20 20 22 23 23 23 24 24 24 24 24 24 25 25 25 24 24 23 23 24 24 24 24 24 23 23 21 21 21 21 22
18 17 19 18 18 20 19 18 19 19 19 19 19 20 21 22 23 23 24 24 24 25 25 25 25 26 27 26 26 26 25 25 24 25 25 25 25 25 25 23 21 21 20 19
17 18 19 20 17 17 18 18 17 18 19 19 20 21 21 21 23 24 25 25 25 26 26 26 27 27 27 27 28 28 27 26 25 25 25 25 25 26 26 26 26 20 19 19